Date String (YYYY-MM-DD hh:mm:ss) UTC,Instrument flags,absolute air pressure of the measurement (hPa),sample flow rate (lpm),inlet stack bypass flow (lpm),air temperature of the measurement (°C),ambient temperature measured by the external sensor (°C),aerosol sample conditioner tube jacket temperature (°C),OPC LED temperature (°C),internal box temperature (°C),relative humidity of the measurement (%),span deviation,mass concentration of particles derived from Lorenz-Mie calculation of OPC scattering (μg/m³),mass concentration of particles derived from Lorenz-Mie calculation of OPC scattering (μg/m³),mass concentration of particles derived from Lorenz-Mie calculation of OPC scattering (μg/m³)
DateTimeUTC,F1_M11,P_M11,Q1_M11,Q2_M11,T1_M11,T2_M11,T3_M11,T4_M11,T5_M11,U1_M11,ZSPAN_M11,X2_M11,X0_M11,X1_M11
2024-04-04 07:00:00,SystemResetWarning,0827.7,4.99,000.00,024.9,023.9,000.0,033.6,026.7,011.6,0000.0,0002.08,0003.08,0001.59
2024-04-04 07:01:00,SystemResetWarning,0827.7,5.00,000.00,024.8,023.9,000.0,033.6,026.7,011.7,0000.0,0002.13,0003.25,0001.60
2024-04-04 07:02:00,SystemResetWarning,0827.7,5.00,000.00,024.8,023.9,000.0,033.5,026.7,011.5,0000.0,0002.20,0004.22,0001.60
2024-04-04 07:03:00,SystemResetWarning,0827.7,5.00,000.00,024.8,023.9,000.0,033.5,026.7,011.5,0000.0,0002.18,0004.58,0001.60
2024-04-04 07:04:00,SystemResetWarning,0827.7,5.01,000.00,024.8,023.9,000.0,033.5,026.7,011.5,0000.0,0002.14,0004.49,0001.59
2024-04-04 07:05:00,SystemResetWarning,0827.7,5.00,000.00,024.8,023.9,000.0,033.5,026.7,011.4,0000.0,0002.16,0004.62,0001.61
2024-04-04 07:06:00,SystemResetWarning,0827.7,4.99,000.00,024.8,023.9,000.0,033.5,026.6,011.6,0000.0,0002.19,0004.73,0001.61
2024-04-04 07:07:00,SystemResetWarning,0827.7,4.99,000.00,024.8,023.9,000.0,033.5,026.6,011.7,0000.0,0002.16,0004.68,0001.60
2024-04-04 07:08:00,SystemResetWarning,0827.7,5.00,000.00,024.8,023.9,000.0,033.5,026.6,011.8,0000.0,0002.17,0004.84,0001.59
2024-04-04 07:09:00,SystemResetWarning,0827.7,5.00,000.00,024.8,023.9,000.0,033.5,026.6,012.0,0000.0,0002.12,0004.73,0001.58
2024-04-04 07:10:00,SystemResetWarning,0827.7,5.00,000.00,024.8,023.8,000.0,033.5,026.6,012.0,0000.0,0002.12,0004.81,0001.59
2024-04-04 07:11:00,SystemResetWarning,0827.7,5.00,000.00,024.8,023.8,000.0,033.5,026.6,011.8,0000.0,0002.11,0004.80,0001.58
2024-04-04 07:12:00,SystemResetWarning,0827.7,5.00,000.00,024.7,023.8,000.0,033.5,026.6,011.8,0000.0,0002.12,0004.78,0001.59
2024-04-04 07:13:00,SystemResetWarning,0827.7,5.00,000.00,024.7,023.8,000.0,033.4,026.6,011.7,0000.0,0002.08,0004.08,0001.58
2024-04-04 07:14:00,SystemResetWarning,0827.7,5.01,000.00,024.7,023.8,000.0,033.4,026.6,011.7,0000.0,0002.08,0003.51,0001.59
2024-04-04 07:15:00,SystemResetWarning,0827.7,5.01,000.00,024.7,023.8,000.0,033.4,026.6,011.7,0000.0,0002.06,0003.43,0001.57
2024-04-04 07:16:00,SystemResetWarning,0827.7,5.00,000.00,024.7,023.8,000.0,033.4,026.5,011.6,0000.0,0002.03,0003.34,0001.55
2024-04-04 07:17:00,SystemResetWarning,0827.7,5.00,000.00,024.7,023.8,000.0,033.4,026.5,011.7,0000.0,0001.99,0003.19,0001.55
2024-04-04 07:18:00,SystemResetWarning,0827.7,5.00,000.00,024.7,023.7,000.0,033.4,026.5,011.6,0000.0,0002.00,0003.21,0001.56
2024-04-04 07:19:00,SystemResetWarning,0827.7,5.00,000.00,024.7,023.7,000.0,033.4,026.5,011.6,0000.0,0001.97,0003.02,0001.56
2024-04-04 07:20:00,SystemResetWarning,0827.7,5.00,000.00,024.7,023.7,000.0,033.4,026.5,011.6,0000.0,0001.98,0003.05,0001.56
2024-04-04 07:21:00,SystemResetWarning,0827.7,5.00,000.00,024.6,023.7,000.0,033.4,026.5,011.6,0000.0,0001.99,0003.04,0001.57
2024-04-04 07:22:00,SystemResetWarning,0827.7,5.00,000.00,024.6,023.7,000.0,033.3,026.5,011.6,0000.0,0001.97,0002.93,0001.56
2024-04-04 07:23:00,SystemResetWarning,0827.7,5.00,000.00,024.6,023.7,000.0,033.3,026.5,011.6,0000.0,0002.00,0003.01,0001.56
2024-04-04 07:24:00,SystemResetWarning,0827.8,5.00,000.00,024.6,023.7,000.0,033.3,026.5,011.6,0000.0,0001.99,0003.02,0001.55
2024-04-04 07:25:00,SystemResetWarning,0827.8,4.99,000.00,024.6,023.7,000.0,033.3,026.5,011.6,0000.0,0002.02,0003.06,0001.55
2024-04-04 07:26:00,SystemResetWarning,0827.8,5.00,000.00,024.6,023.7,000.0,033.3,026.5,011.6,0000.0,0002.05,0003.11,0001.55
2024-04-04 07:27:00,SystemResetWarning,0827.8,5.00,000.00,024.6,023.7,000.0,033.3,026.4,011.6,0000.0,0002.06,0003.22,0001.56
2024-04-04 07:28:00,SystemResetWarning,0827.8,5.00,000.00,024.6,023.7,000.0,033.3,026.4,011.6,0000.0,0002.07,0003.31,0001.56
2024-04-04 07:29:00,SystemResetWarning,0827.8,5.00,000.00,024.6,023.6,000.0,033.3,026.4,011.5,0000.0,0002.07,0003.43,0001.54
2024-04-04 07:30:00,SystemResetWarning,0827.8,5.00,000.00,024.5,023.6,000.0,033.3,026.4,011.6,0000.0,0002.10,0003.53,0001.54
2024-04-04 07:31:00,SystemResetWarning,0827.8,5.00,000.00,024.5,023.6,000.0,033.3,026.4,011.5,0000.0,0002.12,0003.59,0001.55
2024-04-04 07:32:00,SystemResetWarning,0827.8,5.00,000.00,024.5,023.6,000.0,033.2,026.4,011.5,0000.0,0002.09,0003.48,0001.54
2024-04-04 07:33:00,SystemResetWarning,0827.8,5.00,000.00,024.5,023.6,000.0,033.2,026.4,011.6,0000.0,0002.06,0003.43,0001.53
2024-04-04 07:34:00,SystemResetWarning,0827.8,5.00,000.00,024.5,023.6,000.0,033.2,026.4,011.5,0000.0,0002.05,0003.40,0001.53
2024-04-04 07:35:00,SystemResetWarning,0827.8,5.00,000.00,024.5,023.6,000.0,033.2,026.4,011.6,0000.0,0002.07,0003.47,0001.54
2024-04-04 07:36:00,SystemResetWarning,0827.8,5.00,000.00,024.5,023.6,000.0,033.2,026.3,011.6,0000.0,0002.03,0003.35,0001.54
2024-04-04 07:37:00,SystemResetWarning,0827.8,5.00,000.00,024.5,023.6,000.0,033.2,026.4,011.5,0000.0,0002.01,0003.32,0001.55
2024-04-04 07:38:00,SystemResetWarning,0827.8,5.00,000.00,024.5,023.6,000.0,033.2,026.3,011.6,0000.0,0002.06,0003.34,0001.55
2024-04-04 07:39:00,SystemResetWarning,0827.8,5.00,000.00,024.5,023.6,000.0,033.2,026.3,011.7,0000.0,0002.12,0003.39,0001.56
2024-04-04 07:40:00,SystemResetWarning,0827.8,5.00,000.00,024.5,023.5,000.0,033.2,026.3,011.8,0000.0,0002.13,0003.35,0001.58
2024-04-04 07:41:00,SystemResetWarning,0827.8,5.01,000.00,024.4,023.5,000.0,033.2,026.3,011.7,0000.0,0002.08,0004.05,0001.57
2024-04-04 07:42:00,SystemResetWarning,0827.8,5.00,000.00,024.4,023.5,000.0,033.2,026.3,011.7,0000.0,0002.07,0004.47,0001.56
2024-04-04 07:43:00,SystemResetWarning,0827.8,4.99,000.00,024.4,023.5,000.0,033.1,026.3,011.7,0000.0,0002.10,0004.53,0001.56
2024-04-04 07:44:00,SystemResetWarning,0827.7,4.99,000.00,024.4,023.5,000.0,033.1,026.3,011.7,0000.0,0002.14,0004.61,0001.57
2024-04-04 07:45:00,SystemResetWarning,0827.7,5.01,000.00,024.4,023.5,000.0,033.1,026.3,011.6,0000.0,0002.19,0005.11,0001.57
2024-04-04 07:46:00,SystemResetWarning,0827.7,5.01,000.00,024.4,023.5,000.0,033.1,026.3,011.6,0000.0,0002.17,0005.52,0001.56
2024-04-04 07:47:00,SystemResetWarning,0827.7,5.01,000.00,024.4,023.5,000.0,033.1,026.3,011.5,0000.0,0002.20,0005.59,0001.56
2024-04-04 07:48:00,SystemResetWarning,0827.7,4.99,000.00,024.4,023.5,000.0,033.1,026.3,011.4,0000.0,0002.24,0005.70,0001.56
2024-04-04 07:49:00,SystemResetWarning,0827.7,4.99,000.00,024.4,023.5,000.0,033.1,026.2,011.6,0000.0,0002.24,0005.68,0001.56
2024-04-04 07:50:00,SystemResetWarning,0827.7,4.99,000.00,024.4,023.5,000.0,033.1,026.2,011.8,0000.0,0002.16,0005.52,0001.55
2024-04-04 07:51:00,SystemResetWarning,0827.7,5.00,000.00,024.4,023.4,000.0,033.1,026.2,011.6,0000.0,0002.14,0005.45,0001.54
2024-04-04 07:52:00,SystemResetWarning,0827.7,5.01,000.00,024.3,023.4,000.0,033.1,026.2,011.6,0000.0,0002.16,0004.89,0001.55
2024-04-04 07:53:00,SystemResetWarning,0827.7,5.01,000.00,024.3,023.4,000.0,033.0,026.2,011.7,0000.0,0002.15,0004.18,0001.55
2024-04-04 07:54:00,SystemResetWarning,0827.7,5.00,000.00,024.3,023.4,000.0,033.0,026.2,011.9,0000.0,0002.14,0004.17,0001.54
2024-04-04 07:55:00,SystemResetWarning,0827.7,4.99,000.00,024.3,023.4,000.0,033.0,026.2,011.8,0000.0,0002.14,0004.32,0001.55
2024-04-04 07:56:00,SystemResetWarning,0827.7,5.00,000.00,024.3,023.4,000.0,033.0,026.2,011.9,0000.0,0002.08,0004.04,0001.53
2024-04-04 07:57:00,SystemResetWarning,0827.7,5.00,000.00,024.3,023.4,000.0,033.0,026.2,011.8,0000.0,0002.04,0003.30,0001.53
2024-04-04 07:58:00,SystemResetWarning,0827.7,5.00,000.00,024.3,023.4,000.0,033.0,026.1,011.6,0000.0,0002.04,0003.32,0001.54
2024-04-04 07:59:00,SystemResetWarning,0827.7,5.01,000.00,024.3,023.4,000.0,033.0,026.1,012.1,0000.0,0002.02,0003.26,0001.53
